Theta_e
302 302 302 302 302 302 302 302 302 303 303 303 303 303 303 303 304 305 311 311 314 316 314 315 318 322 322 321 321 320 322 324 326 327 328 329 331 329 328 329 331 332 334 357 355
301 301 301 301 301 301 301 301 302 302 302 302 302 302 302 302 303 308 314 314 314 312 315 315 317 322 323 323 322 322 323 322 325 327 328 328 329 330 328 327 328 331 341 353 357
302 301 301 301 302 302 301 301 301 301 301 301 301 302 302 303 312 319 319 315 313 314 313 314 315 320 324 323 322 321 322 322 324 325 327 328 329 330 329 327 326 327 333 343 350
301 301 301 301 301 302 302 302 301 301 301 302 302 301 301 305 318 322 317 314 317 317 318 316 314 318 323 325 323 321 320 321 322 323 324 325 326 327 327 327 327 326 328 337 347
301 301 301 301 301 301 301 302 302 302 302 302 302 302 302 313 316 315 317 315 313 319 324 323 319 317 321 323 324 324 322 321 321 321 322 322 323 325 325 325 325 325 327 337 342
301 301 301 302 302 302 302 302 302 302 302 302 302 302 309 313 313 315 314 313 316 319 320 321 320 318 320 322 323 324 325 325 323 322 321 322 322 323 323 324 324 324 324 324 325
300 301 301 302 302 303 304 305 305 304 303 303 302 303 311 312 314 314 313 313 313 314 320 321 321 322 322 322 322 323 324 326 327 326 324 322 321 322 321 322 323 323 323 322 323
301 301 301 301 302 304 305 307 305 304 304 303 302 310 311 312 314 314 313 313 313 315 316 319 321 322 322 322 322 323 324 326 326 326 326 324 323 322 321 321 322 322 322 322 322
302 301 302 302 303 303 305 307 308 310 309 308 310 314 317 317 316 314 312 313 313 313 315 318 319 320 321 323 323 323 325 325 325 326 327 324 324 324 322 321 321 321 321 321 321
302 301 302 302 302 303 307 309 313 312 313 313 315 317 317 316 317 315 317 316 318 318 314 316 317 318 320 322 325 323 324 324 325 326 325 326 327 325 323 322 323 322 321 321 321
301 302 302 303 302 306 310 314 314 314 316 316 316 317 315 317 315 316 318 319 319 320 321 316 318 319 318 319 321 322 323 323 324 325 326 327 327 327 325 323 323 323 323 321 321
303 303 304 303 302 312 313 314 312 310 312 312 312 312 313 313 314 314 314 316 319 321 320 320 318 318 319 317 319 320 321 322 323 324 325 327 327 328 328 325 323 323 323 322 322
304 303 305 306 305 314 313 314 311 311 312 312 313 314 314 315 314 313 313 316 316 319 320 321 320 319 320 319 319 318 320 321 321 322 324 326 329 328 326 327 325 323 323 322 321
303 302 302 302 311 312 315 313 312 312 314 316 316 317 317 318 319 318 318 319 316 317 320 321 320 319 319 320 321 320 319 319 320 322 324 324 328 330 327 326 327 326 323 323 321
304 302 304 302 307 316 314 312 312 314 320 318 319 319 319 319 319 318 319 319 319 319 320 322 321 321 320 321 321 322 321 319 319 320 322 323 326 327 327 326 326 327 326 325 323
308 308 301 305 310 314 311 312 313 319 324 317 316 316 317 317 317 316 317 317 317 319 318 320 319 320 320 320 321 321 322 323 320 320 322 322 325 326 327 327 327 326 326 325 324
311 309 305 306 312 310 310 312 317 320 317 317 314 314 315 315 315 314 315 315 315 316 317 318 319 317 317 317 318 319 322 328 323 322 323 321 323 324 326 326 326 326 326 325 325
310 308 310 310 312 309 309 312 317 316 314 311 310 309 310 310 312 313 316 319 317 318 318 319 321 319 319 319 319 320 321 327 326 324 322 322 323 323 324 324 325 324 325 326 325
307 308 310 312 311 307 309 313 315 311 309 307 307 307 307 307 308 308 311 312 314 316 320 322 320 319 318 319 320 321 321 321 326 321 321 321 323 323 324 324 324 324 325 326 326
304 308 312 312 310 307 312 315 313 309 307 306 306 306 307 307 308 309 308 311 315 315 318 320 321 317 317 318 319 320 322 325 325 325 328 326 327 324 324 325 325 326 326 326 326
304 309 310 309 308 309 312 311 309 306 306 306 306 307 308 308 309 309 309 309 311 315 316 316 318 318 318 322 321 321 323 322 324 324 324 327 328 331 331 327 327 326 325 325 328
303 309 309 308 309 311 310 308 307 307 306 307 307 307 308 309 309 309 310 310 313 314 317 314 317 319 318 317 318 321 323 324 327 326 324 327 329 329 332 330 328 329 329 333 343
304 308 309 308 309 309 307 308 307 307 307 307 307 307 309 308 311 311 310 310 311 314 315 315 318 319 322 321 320 323 321 323 323 323 328 330 330 330 330 336 337 340 340 342 343
306 310 308 307 307 307 307 308 308 307 308 306 307 307 308 309 309 309 309 311 312 311 313 314 315 316 319 319 318 320 320 321 324 327 327 325 328 329 326 333 333 337 338 338 340
308 308 305 307 306 306 307 308 309 308 307 306 307 308 308 309 309 309 310 311 311 313 315 315 314 314 315 315 316 317 318 319 322 326 329 327 326 328 331 333 331 334 337 338 339
304 303 303 304 304 306 307 308 307 307 306 307 307 307 307 309 309 310 310 311 311 311 312 315 315 315 315 316 318 319 319 319 320 324 325 325 323 327 329 329 331 334 335 336 336
302 301 302 303 304 306 306 306 306 306 306 305 306 308 309 310 309 309 309 309 310 312 312 314 315 314 316 316 316 324 321 321 322 325 324 329 327 326 329 329 331 331 332 332 329
Wind_Speed
19 19 19 18 18 19 18 17 18 19 22 23 25 27 26 27 29 28 30 27 16 16 17 16 16 18 19 25 25 23 16 18 27 27 21 27 25 5 6 14 22 11 10 17 21
20 21 22 24 25 25 25 25 24 22 22 22 23 24 26 31 34 36 26 23 23 27 20 14 19 16 25 21 30 21 17 29 24 24 25 30 30 29 14 17 19 15 14 14 16
23 25 26 27 28 28 30 30 31 32 32 31 30 29 26 24 25 4 6 11 13 22 21 21 18 22 27 29 29 29 26 24 27 33 36 29 29 32 12 14 18 23 21 16 16
26 26 27 27 28 28 27 28 29 29 31 32 33 35 29 16 7 7 12 13 6 4 11 16 21 26 23 25 31 28 34 34 31 35 30 24 35 24 19 18 20 24 22 21 24
26 27 27 27 27 27 26 26 27 29 28 30 33 33 23 10 21 19 20 18 16 10 12 16 22 25 24 25 28 30 28 35 36 34 34 31 29 25 25 19 16 11 10 17 13
25 25 26 26 25 26 27 27 27 26 27 28 25 22 12 15 8 13 9 9 11 15 17 19 21 25 26 25 28 29 30 32 33 35 34 27 27 21 28 26 24 22 14 16 16
28 29 29 28 30 30 28 29 28 27 21 19 21 16 16 36 12 11 15 13 12 16 21 20 20 24 24 24 33 31 30 28 28 34 30 35 26 29 28 32 33 25 26 21 24
30 31 31 31 32 31 30 27 26 26 24 20 12 8 15 12 11 19 20 23 18 18 21 20 20 24 28 30 29 24 27 26 29 27 29 26 29 27 34 31 30 28 29 27 29
32 34 34 35 35 33 30 25 23 20 21 15 2 9 13 11 14 15 16 19 18 20 18 16 18 23 22 20 20 24 23 28 25 27 29 24 32 26 33 34 33 32 32 32 30
34 35 35 35 36 34 30 22 18 16 11 6 10 10 19 15 5 7 9 13 15 13 19 18 13 17 18 17 21 23 25 27 28 23 28 27 31 24 34 30 29 29 36 35 36
34 35 37 36 35 27 27 22 14 6 6 17 22 21 26 12 9 11 10 11 15 20 18 22 15 22 24 24 27 26 25 28 27 26 28 25 30 25 25 26 20 31 37 42 37
34 36 37 36 31 16 17 12 12 16 27 25 45 46 46 35 37 31 17 21 16 20 20 18 24 24 21 24 26 26 26 29 26 26 24 24 29 25 25 26 29 26 22 22 31
35 36 36 34 24 13 16 11 17 18 14 31 33 27 27 21 26 25 23 24 24 21 22 23 25 25 26 24 24 25 26 25 26 25 28 21 24 24 20 25 28 32 32 26 28
35 36 40 35 10 17 8 15 16 16 7 19 6 3 6 5 13 17 19 21 21 25 24 22 24 27 26 22 25 24 24 26 26 23 19 22 16 21 20 18 19 28 35 32 33
36 35 36 21 20 10 15 18 17 10 8 4 8 2 8 12 16 9 18 15 20 21 21 20 28 21 22 26 24 22 19 22 25 23 23 28 14 19 20 22 22 22 28 35 39
38 36 36 19 16 16 21 18 13 6 9 11 19 20 16 23 15 19 15 18 27 26 23 27 32 24 24 23 24 22 16 28 23 18 19 24 22 17 22 20 24 23 32 33 32
43 38 24 16 6 16 19 17 8 10 16 22 29 24 21 23 24 26 26 27 22 22 24 22 28 27 25 29 27 19 10 12 13 15 17 22 24 19 22 24 21 21 33 40 36
45 38 16 9 7 16 19 12 12 12 18 27 27 31 28 28 28 22 17 16 20 28 7 15 20 29 23 20 22 23 20 11 12 15 20 25 25 22 27 26 30 17 34 36 38
43 27 13 10 6 17 14 9 12 18 24 24 30 23 27 30 31 28 27 25 22 19 6 9 18 16 16 18 18 26 8 11 15 22 15 15 27 27 23 28 28 14 9 29 30
38 25 9 3 11 17 8 14 18 22 24 21 24 24 26 27 27 27 24 20 19 17 11 7 8 12 20 9 22 20 5 14 13 20 9 13 20 19 25 27 25 19 10 11 19
23 15 2 7 17 12 10 14 22 27 21 18 20 22 24 21 18 22 26 25 13 10 4 5 6 6 5 6 20 17 10 3 6 17 16 9 8 12 22 17 22 17 19 16 14
13 8 17 13 15 6 8 18 22 18 16 18 15 17 20 19 15 17 20 22 8 6 10 4 5 8 16 12 21 11 20 19 5 13 17 6 4 19 21 9 15 10 19 18 18
18 20 5 20 9 10 18 19 19 14 15 15 17 19 12 9 9 7 6 14 18 9 1 2 3 7 11 11 3 4 13 15 12 4 20 11 9 11 14 13 12 16 17 16 17
10 8 19 19 15 18 18 20 18 16 17 23 19 18 5 20 17 16 9 5 16 6 7 6 3 6 10 13 10 8 19 13 13 9 15 15 19 4 10 12 6 11 13 15 20
7 9 18 9 16 17 19 20 16 19 18 24 17 15 23 16 23 19 24 22 20 10 4 0 3 12 17 19 21 22 22 20 16 16 15 15 14 10 10 8 6 7 12 16 19
14 20 16 26 16 19 20 15 21 21 22 18 16 26 22 17 18 24 21 19 18 16 11 2 4 14 19 18 18 24 24 22 19 17 14 11 6 2 5 7 3 10 12 14 18
14 17 16 14 15 16 16 21 18 21 11 27 21 21 21 19 28 34 33 29 24 21 18 14 8 6 7 10 21 10 24 20 18 20 18 18 13 9 10 10 6 16 16 23 23
Wind_Direction
3 357 352 349 345 340 335 331 327 323 322 319 321 319 319 319 312 302 276 267 256 261 243 251 260 240 233 237 233 233 242 244 242 248 252 261 270 167 190 234 254 178 173 97 134
358 353 349 346 343 339 335 331 328 324 319 313 312 314 318 321 315 301 292 271 252 246 246 241 244 233 229 232 232 228 238 237 244 250 250 262 270 275 192 216 238 212 156 138 161
356 352 348 344 341 337 333 332 330 328 326 322 319 318 324 324 317 265 303 315 251 242 243 238 245 247 232 231 230 229 239 247 246 249 261 266 266 276 233 204 233 247 195 172 183
353 349 346 342 339 334 330 325 321 319 317 315 316 317 327 322 292 276 299 303 312 217 230 234 233 238 245 234 232 240 236 243 254 264 268 258 261 271 257 238 222 236 218 199 198
350 347 343 340 336 331 326 320 316 311 309 308 308 309 320 261 258 296 271 282 259 251 227 229 228 233 239 245 241 238 243 242 241 252 258 269 269 256 259 237 240 271 184 161 186
347 344 341 339 335 330 324 319 311 303 302 303 305 305 293 261 279 254 265 257 238 225 230 230 232 236 255 246 248 253 252 257 250 246 247 255 260 258 241 253 231 237 212 192 211
347 346 344 342 338 339 334 328 318 309 302 292 292 290 259 254 232 241 254 247 238 238 239 238 241 247 253 255 259 253 254 262 248 241 246 247 251 249 236 241 249 238 242 233 209
348 345 346 344 343 340 336 330 326 318 310 304 286 238 255 261 271 248 253 252 250 238 238 242 247 251 252 261 266 261 252 245 241 250 243 241 246 240 239 234 240 240 241 239 234
348 346 345 343 339 336 332 328 319 315 307 313 249 203 265 285 253 258 244 244 246 245 245 242 244 253 254 247 253 246 249 239 251 246 238 217 245 243 240 234 233 236 233 236 238
346 343 341 340 335 334 334 333 311 306 298 292 261 245 246 255 280 230 239 237 241 242 232 232 239 239 234 237 232 237 242 242 254 244 231 240 237 234 239 241 252 232 232 233 229
344 341 339 339 334 337 345 3 343 289 223 246 266 237 265 237 241 242 242 236 243 240 230 221 231 234 228 226 246 256 253 253 251 231 240 241 237 232 218 221 233 231 239 219 226
343 341 339 337 335 338 346 335 337 307 300 270 261 259 264 266 271 259 242 232 231 238 237 233 233 242 246 251 245 237 249 263 268 271 271 239 243 237 219 208 222 238 244 221 213
343 340 337 333 333 343 326 312 325 323 292 295 268 262 241 243 248 261 241 236 239 241 237 242 240 239 236 244 250 251 248 247 250 259 268 265 262 242 241 210 214 210 237 222 219
341 340 333 334 339 320 324 327 327 322 283 276 154 190 164 227 241 246 250 229 232 239 257 248 242 244 254 247 237 240 250 256 253 258 251 249 258 248 228 245 238 213 212 213 211
338 339 332 333 322 332 324 325 321 316 293 26 91 146 254 212 310 263 234 223 234 249 261 263 288 297 265 243 269 289 267 241 262 245 257 256 253 249 222 225 234 241 226 218 206
332 334 325 334 300 306 319 316 306 250 252 12 11 349 318 292 304 298 227 232 244 271 262 261 275 267 259 258 273 277 288 300 233 249 244 245 249 231 254 229 220 219 224 225 214
334 334 318 312 293 328 321 317 275 242 312 344 343 333 314 304 309 302 292 288 277 259 243 280 271 251 252 259 258 242 238 244 232 226 241 234 244 243 238 247 245 245 212 211 210
337 337 331 300 300 322 322 289 260 313 319 340 336 327 312 313 303 304 304 291 311 306 228 222 259 250 258 234 248 269 246 243 211 225 237 222 236 230 232 253 249 276 223 197 201
342 344 316 264 278 330 310 274 297 350 341 333 323 314 311 311 307 302 286 294 288 290 235 295 277 327 311 317 242 233 206 249 271 240 238 239 225 231 231 221 239 243 286 186 196
338 336 306 268 309 314 297 269 308 348 332 324 314 318 313 312 308 304 293 298 313 353 23 21 298 286 262 287 263 251 304 208 222 251 198 261 252 223 215 212 219 211 211 201 189
338 317 57 335 317 274 268 309 332 324 324 328 321 320 322 327 311 299 293 288 288 308 328 341 258 289 53 249 245 242 211 150 295 252 232 242 267 336 317 194 195 184 181 199 167
325 295 312 331 304 262 322 333 318 320 334 333 339 319 318 329 313 302 277 281 9 335 328 129 278 276 276 193 238 308 218 207 184 247 248 196 256 292 324 48 162 149 161 148 120
315 300 28 338 305 336 333 312 314 338 321 336 330 312 19 306 304 329 307 307 326 298 325 329 252 316 313 175 151 321 244 245 220 242 266 281 213 164 317 47 50 105 115 116 110
304 315 332 320 324 348 316 310 316 338 336 332 327 326 292 318 316 307 336 256 232 280 177 274 253 271 282 306 287 306 297 295 221 214 241 252 284 203 165 119 190 128 130 145 136
291 327 334 309 327 311 296 298 319 336 338 333 317 325 323 315 312 312 322 327 328 101 172 157 290 302 296 297 290 278 276 279 270 199 241 267 270 273 18 60 118 160 159 153 152
319 343 323 300 313 294 295 352 341 337 337 316 326 313 310 296 301 309 315 309 311 298 285 211 289 311 297 281 280 261 258 253 257 263 204 247 253 265 132 61 187 146 139 140 139
331 320 317 308 311 313 346 332 336 331 317 319 306 307 305 309 305 298 293 284 270 277 279 291 288 302 264 342 329 260 235 223 231 233 226 204 210 85 158 138 174 105 110 92 80